Location: Newark
(30.0333°N, 31.2167°E)
Time: 18:36:42
(UTC+00:00)

Tiros 1 despin weight - Pass Details

Date: 23 January 2020
Orbit: 594 x 642 km, 48.2° (Epoch: 27 February)

Event Time Altitude Azimuth Distance (km) Brightness Sun altitude
Rises 17:39:15 0° 297° (WNW) 2,935 ? -29.1°
Reaches altitude 10° 17:41:54 10° 284° (WNW) 2,026 ? -29.7°
Maximum altitude 17:45:41 25° 230° (SW) 1,297 ? -30.5°
Enters shadow 17:46:49 22° 207° (SSW) 1,375 ? -30.7°
Drops below altitude 10° 17:49:28 10° 175° (S) 2,018 - -31.3°
Sets 17:52:07 0° 162° (SSE) 2,921 - -31.9°
